Regional Weather Roundup
Issued by NWS

Home | Current Version | Previous Version | Text Only | Print | Product List | Glossary On
Versions: 1 2 3 4 5 6 7 8 9 10 11 12 13 14 15 16 17 18 19 20 21 22 23 24 25 26 27 28 29 30 31 32 33 34 35 36 37 38 39 40 41 42 43 44 45 46 47 48 49 50
000
ASUS43 KBIS 232310
RWRND

NORTH DAKOTA REGIONAL WEATHER ROUNDUP
NATIONAL WEATHER SERVICE BISMARCK ND
500 PM CST THU FEB 23 2017

NOTE: "FAIR" INDICATES FEW OR NO CLOUDS BELOW 12,000 FEET WITH NO
SIGNIFICANT WEATHER AND/OR OBSTRUCTIONS TO VISIBILITY.


NDZ001>003-009>011-017-240000-
NORTHWEST NORTH DAKOTA

CITY           SKY/WX    TMP DP  RH WIND       PRES   REMARKS
WILLISTON      CLOUDY    27  14  58 NE7       30.11R WCI  19
MINOT          FAIR      26  14  60 N10       30.10S WCI  16
MINOT AFB      FAIR      24  14  66 N7        30.10R WCI  16
$$

NDZ018>021-031>035-040>046-240000-
SOUTHWEST NORTH DAKOTA

CITY           SKY/WX    TMP DP  RH WIND       PRES   REMARKS
BISMARCK       CLOUDY    29  24  82 NE15      30.06R WCI  18
DICKINSON      FOG       22  21  96 NE15      30.01R VSB 1   WCI   9
GARRISON         N/A     25  11  55 NE10      30.07R WCI  15
HETTINGER ARPT CLOUDY    29  24  82 NE16      29.99R HAZE    WCI  17
$$

NDZ004>008-012>016-024-026-027-054-240000-
NORTHEAST NORTH DAKOTA

CITY           SKY/WX    TMP DP  RH WIND       PRES   REMARKS
GRAND FORKS    CLOUDY    25  12  58 N18       30.10S WCI  11
GRND FRKS AFB  MIX PCPN  25  16  68 N16       30.10S WCI  12
DEVILS LAKE    CLOUDY    24  19  81 N12       30.10R WCI  13
$$

NDZ022-023-025-028>030-036>039-047>053-240000-
SOUTHEAST NORTH DAKOTA

CITY           SKY/WX    TMP DP  RH WIND       PRES   REMARKS
FARGO          CLOUDY    28  20  71 N22       30.06R WCI  14
JAMESTOWN      CLOUDY    28  24  85 NE10      30.03R WCI  19
$$





USA.gov is the U.S. government's official web portal to all federal, state and local government web resources and services.